| time (UTC) | temp F | wind direction | speed knots | gust knots | rain 1hr in | rain 24hr in | rain mn in | humidity % | barometer mb |
| 20260504173013 | 75 | 69 | 5.2 | 10.4 | 0.00 | 0.00 | 0.00 | 41 | 1017.7 |
| 20260504171533 | 75 | 69 | 3.5 | 8.7 | 0.00 | 0.00 | 0.00 | 42 | 1017.5 |
| 20260504081521 | 51 | 70 | 0.0 | 0.0 | 0.00 | 0.00 | 0.00 | 94 | 1018.0 |
| 20260504044532 | 55 | 70 | 0.0 | 0.9 | 0.00 | 0.00 | 0.00 | 88 | 1019.3 |
| 20260504043030 | 55 | 70 | 0.0 | 0.9 | 0.00 | 0.00 | 0.00 | 87 | 1019.4 |
| 20260504041520 | 55 | 70 | 0.0 | 0.0 | 0.00 | 0.00 | 0.00 | 89 | 1019.4 |
| 20260504040025 | 55 | 70 | 0.0 | 1.7 | 0.00 | 0.00 | 0.00 | 90 | 1019.4 |
| 20260504034528 | 54 | 70 | 0.0 | 0.0 | 0.00 | 0.00 | 0.00 | 90 | 1019.4 |
| 20260504033027 | 54 | 70 | 0.0 | 0.0 | 0.00 | 0.00 | 0.00 | 90 | 1019.4 |
| 20260504031527 | 55 | 70 | 0.0 | 0.0 | 0.00 | 0.00 | 0.00 | 89 | 1019.4 |
| 20260504030033 | 56 | 70 | 0.0 | 0.0 | 0.00 | 0.00 | 0.00 | 87 | 1019.4 |
| 20260504024511 | 56 | 70 | 0.0 | 0.9 | 0.00 | 0.00 | 0.00 | 88 | 1019.3 |
| 20260504023011 | 57 | 70 | 0.0 | 0.0 | 0.00 | 0.00 | 0.00 | 86 | 1019.1 |
| 20260504021512 | 58 | 70 | 0.0 | 0.0 | 0.00 | 0.00 | 0.00 | 83 | 1019.1 |
| 20260504020018 | 58 | 70 | 0.0 | 0.0 | 0.00 | 0.00 | 0.00 | 82 | 1018.8 |
| 20260504014513 | 59 | 70 | 0.0 | 0.0 | 0.00 | 0.00 | 0.00 | 83 | 1018.7 |
| 20260504013012 | 60 | 70 | 0.0 | 0.0 | 0.00 | 0.00 | 0.00 | 79 | 1018.5 |
| 20260504011515 | 61 | 70 | 0.0 | 0.0 | 0.00 | 0.00 | 0.00 | 76 | 1018.4 |
| 20260504010015 | 63 | 70 | 0.0 | 0.0 | 0.00 | 0.00 | 0.00 | 71 | 1018.3 |
| 20260504004522 | 65 | 70 | 0.0 | 0.0 | 0.00 | 0.00 | 0.00 | 69 | 1018.2 |
| 20260504003014 | 67 | 69 | 0.0 | 1.7 | 0.00 | 0.00 | 0.00 | 59 | 1018.2 |
| 20260504001516 | 70 | 70 | 0.0 | 0.9 | 0.00 | 0.00 | 0.00 | 54 | 1018.1 |
| 20260504000016 | 73 | 70 | 0.0 | 0.9 | 0.00 | 0.00 | 0.00 | 49 | 1018.1 |
| 20260503234526 | 78 | 70 | 0.0 | 0.9 | 0.00 | 0.00 | 0.00 | 41 | 1018.1 |
| 20260503233016 | 77 | 70 | 0.9 | 0.9 | 0.00 | 0.00 | 0.00 | 42 | 1018.2 |
| 20260503231516 | 77 | 70 | 0.9 | 3.5 | 0.00 | 0.00 | 0.00 | 37 | 1018.2 |
| 20260503230020 | 76 | 70 | 0.9 | 3.5 | 0.00 | 0.00 | 0.00 | 37 | 1018.2 |
| 20260503224519 | 76 | 70 | 1.7 | 4.3 | 0.00 | 0.00 | 0.00 | 36 | 1018.3 |
| 20260503223017 | 76 | 70 | 1.7 | 6.1 | 0.00 | 0.00 | 0.00 | 38 | 1018.4 |
| 20260503221523 | 76 | 70 | 0.9 | 4.3 | 0.00 | 0.00 | 0.00 | 36 | 1018.5 |
| 20260503220038 | 76 | 70 | 0.9 | 3.5 | 0.00 | 0.00 | 0.00 | 35 | 1018.5 |
| 20260503214518 | 76 | 70 | 0.9 | 5.2 | 0.00 | 0.00 | 0.00 | 36 | 1018.9 |
| 20260503213024 | 76 | 70 | 1.7 | 6.1 | 0.00 | 0.00 | 0.00 | 36 | 1019.1 |
| 20260503211521 | 75 | 70 | 1.7 | 4.3 | 0.00 | 0.00 | 0.00 | 38 | 1019.3 |
| 20260503210024 | 75 | 70 | 0.9 | 2.6 | 0.00 | 0.00 | 0.00 | 38 | 1019.4 |
| 20260503204523 | 76 | 70 | 3.5 | 7.0 | 0.00 | 0.00 | 0.00 | 38 | 1019.6 |
| 20260503203029 | 76 | 70 | 1.7 | 4.3 | 0.00 | 0.00 | 0.00 | 36 | 1019.7 |
| 20260503201524 | 75 | 70 | 1.7 | 5.2 | 0.00 | 0.00 | 0.00 | 35 | 1019.9 |
| 20260503200024 | 76 | 70 | 1.7 | 4.3 | 0.00 | 0.00 | 0.00 | 38 | 1020.4 |
| 20260503194523 | 76 | 69 | 3.5 | 7.0 | 0.00 | 0.00 | 0.00 | 37 | 1020.6 |
| 20260503193029 | 76 | 70 | 2.6 | 4.3 | 0.00 | 0.00 | 0.00 | 35 | 1020.7 |
| 20260503191522 | 75 | 69 | 0.9 | 7.0 | 0.00 | 0.00 | 0.00 | 38 | 1020.9 |
| 20260503190029 | 75 | 70 | 1.7 | 3.5 | 0.00 | 0.00 | 0.00 | 38 | 1021.2 |
| 20260503184526 | 75 | 70 | 2.6 | 6.1 | 0.00 | 0.00 | 0.00 | 35 | 1021.5 |
| 20260503183042 | 74 | 70 | 2.6 | 7.0 | 0.00 | 0.00 | 0.00 | 42 | 1021.7 |
| 20260503181526 | 75 | 70 | 0.9 | 4.3 | 0.00 | 0.00 | 0.00 | 39 | 1021.9 |
| 20260503180026 | 74 | 70 | 1.7 | 5.2 | 0.00 | 0.00 | 0.00 | 36 | 1022.0 |
| 20260503174517 | 74 | 70 | 0.9 | 7.8 | 0.00 | 0.00 | 0.00 | 37 | 1022.2 |